Regional Weather Roundup
Issued by NWS

Home | Current Version | Previous Version | Graphics & Text | Print | Product List | Glossary On
Versions: 1 2 3 4 5 6 7 8 9 10 11 12 13 14 15 16 17 18 19 20 21 22 23 24 25 26 27 28 29 30 31 32 33 34 35 36 37 38 39 40 41 42 43 44 45 46 47 48 49 50
000
ASUS43 KLMK 250102
RWRKY
KENTUCKY REGIONAL WEATHER ROUNDUP
NATIONAL WEATHER SERVICE LOUISVILLE KY
800 PM EST SAT JAN 24 2015

NOTE "FAIR" INDICATES FEW OR NO CLOUDS BELOW 12,000 FEET
WITH NO SIGNIFICANT WEATHER AND/OR OBSTRUCTIONS TO VISIBILITY.

KYZ001>023-026-027-061>063-070>075-250200-
WESTERN AND SOUTH CENTRAL KENTUCKY

CITY           SKY/WX    TMP DP  RH WIND       PRES   REMARKS
PADUCAH        CLEAR     44  30  57 SW7       29.85R
HENDERSON      CLEAR     37  27  65 SW7       29.83S WCI  32
OWENSBORO      CLEAR     37  29  73 S5        29.84R WCI  33
HOPKINSVILLE   CLEAR     42  30  62 SW6       29.87R
BOWLING GREEN  CLEAR     39  31  72 CALM      29.88R
GLASGOW        NOT AVBL
$$

KYZ024-025-028>034-038-045-046-053-250200-
NORTH CENTRAL KENTUCKY

CITY           SKY/WX    TMP DP  RH WIND       PRES   REMARKS
LOUISVILLE/SDF CLEAR     40  30  67 S5        29.83R
LOUISVILLE/LOU CLEAR     40  29  64 S3        29.83R
FORT KNOX      CLEAR     35  30  83 S6        29.83R WCI  30
$$

KYZ035>037-039>044-047>052-055>060-089>105-250200-
NORTHEAST KENTUCKY

CITY           SKY/WX    TMP DP  RH WIND       PRES   REMARKS
LEXINGTON      CLEAR     31  28  89 SW9       29.84R WCI  23
COVINGTON      PTCLDY    34  26  72 SW5       29.79R WCI  30
FRANKFORT      CLEAR     33  29  85 SW9       29.82R WCI  25
$$

KYZ054-064>069-076>088-106>120-250200-
SOUTHEAST KENTUCKY

CITY           SKY/WX    TMP DP  RH WIND       PRES   REMARKS
JACKSON        CLOUDY    34  30  85 VRB5      29.83R WCI  30
LONDON         CLEAR     36  28  73 SW5       29.86R WCI  32
SOMERSET       NOT AVBL
MIDDLESBORO    NOT AVBL
MONTICELLO     CLEAR     36  32  85 CALM      29.90R
$$



USA.gov is the U.S. government's official web portal to all federal, state and local government web resources and services.